Location: Driftpile
(55.3500°N, 115.7667°W)
Time: 02:19:40
(UTC+00:00)

N. Korean satellite - Pass Details

Date: 29 November 2021
Orbit: 446 x 492 km, 97.3° (Epoch: 17 January)

Event Time Altitude Azimuth Distance (km) Brightness Sun altitude
Rises 13:22:52 0° 13° (NNE) 2,496 10.2 -18.8°
Reaches altitude 10° 13:24:55 10° 11° (NNE) 1,610 9.2 -18.5°
Maximum altitude 13:28:22 76° 286° (WNW) 474 6.2 -18.0°
Drops below altitude 10° 13:31:44 10° 201° (SSW) 1,579 9.1 -17.6°
Sets 13:33:45 0° 200° (SSW) 2,443 10.1 -17.3°
